[[{"header":{"parameterUnit":"m.s-1","parameterCategory":1,"la1":30.2992,"la2":30.254,"lo1":-89.0895,"lo2":-89.0443,"dy":0.0025,"dx":0.0025,"nx":19,"ny":19,"refTime":"2026-04-28T09:00:00:Z","depth":0,"parameterNumber":2,"parameterNumberName":"U-component_of_WINDS"},"data":[0,0,0,-2.2267,-2.2269,-2.2368,-2.2368,-2.2496,-2.2497,0,0,0,0,0,0,0,0,0,0,0,-2.2237,-2.2238,-2.2267,-2.2269,-2.2368,-2.2369,-2.2496,-2.2497,0,0,0,0,0,0,0,0,0,0,0,-2.2236,-2.2237,-2.2238,-2.2269,-2.2368,-2.2369,-2.2495,-2.2421,0,0,0,0,0,0,0,0,0,0,-2.2324,-2.2296,-2.2237,-2.2238,-2.227,-2.2368,-2.2369,-2.2417,-2.2425,-2.2451,0,-2.2473,0,-2.2487,-2.2505,-2.2506,0,0,0,-2.227,-2.2289,-2.2316,-2.2239,-2.2271,-2.2368,-2.2324,-2.2422,-2.2431,-2.2462,-2.2475,-2.2479,-2.2489,-2.2506,-2.2507,-2.2651,-2.2652,0,0,-2.2264,-2.2254,-2.231,-2.2322,-2.2306,-2.232,-2.2327,-2.2427,-2.2441,-2.2475,-2.2482,-2.2491,-2.2507,-2.2508,-2.2651,-2.2652,0,0,0,-2.2248,-2.2251,-2.2275,-2.2317,-2.2335,-2.2323,-2.233,-2.2436,-2.2445,-2.2484,-2.2493,-2.2508,-2.2509,-2.265,-2.2651,-2.2673,0,0,0,-2.2245,-2.2241,-2.2273,-2.2268,-2.2333,-2.2387,-2.2337,-2.2438,-2.245,-2.2492,-2.2508,-2.2511,-2.2649,-2.2651,-2.2671,-2.2685,0,0,0,-2.2231,-2.224,-2.2254,-2.2267,-2.2309,-2.2385,-2.24,-2.2441,-2.2455,-2.2506,-2.2511,-2.2649,-2.265,-2.2669,-2.2682,-2.272,0,0,0,-2.2213,-2.2272,-2.2254,-2.2324,-2.2309,-2.2398,-2.2399,-2.2466,-2.2513,-2.2509,-2.265,-2.2651,-2.2668,-2.268,-2.2718,-2.2749,-2.2762,0,0,-2.2282,-2.228,-2.2322,-2.2308,-2.2398,-2.2384,-2.2477,-2.2529,-2.2543,-2.2615,-2.2619,-2.2672,-2.2681,-2.2719,-2.2836,-2.2846,0,0,0,-2.234,-2.237,-2.2396,-2.2439,-2.248,-2.2517,-2.2555,-2.2575,-2.2636,-2.2578,-2.2696,-2.2703,-2.2725,-2.2741,-2.2749,-2.2769,-2.2658,-2.2658,-2.2658,-2.2424,-2.2438,-2.2509,-2.2536,-2.2578,-2.2618,-2.2653,-2.2687,-2.2689,-2.2717,-2.2738,-2.2807,-2.2825,-2.2832,-2.2852,-2.2757,-2.2757,-2.2757,-2.2757,-2.2526,-2.257,-2.2573,-2.2642,-2.2658,-2.2717,-2.2758,-2.2758,-2.2816,-2.2793,-2.2813,-2.2786,-2.2842,-2.2861,-2.2759,-2.2759,-2.2758,-2.2758,-2.2758,-2.2581,-2.2605,-2.2628,-2.2693,-2.2741,-2.2767,-2.2822,-2.2835,-2.2848,-2.2868,-2.2892,-2.2892,-2.2893,-2.2879,-2.2879,-2.2879,-2.288,-2.288,-2.288,-2.263,-2.2655,-2.2699,-2.2748,-2.2778,-2.2819,-2.286,-2.2891,-2.2927,-2.2932,-2.2933,-2.2933,-2.2845,-2.2822,-2.2884,-2.2883,-2.2882,-2.2882,-2.2882,-2.2727,-2.2707,-2.2775,-2.2805,-2.2865,-2.2912,-2.2928,-2.2989,-2.3016,-2.3043,-2.3039,-2.2972,-2.2971,-2.2964,-2.2946,-2.3036,-2.3036,-2.3036,-2.3036,-2.2773,-2.2774,-2.2847,-2.2894,-2.2942,-2.2964,-2.3042,-2.3075,-2.3107,-2.3125,-2.3114,-2.3091,-2.3083,-2.3087,-2.3077,-2.306,-2.3177,-2.3177,-2.3177,-2.2834,-2.284,-2.2903,-2.2933,-2.2981,-2.3021,-2.3095,-2.315,-2.3182,-2.3183,-2.3139,-2.3133,-2.3095,-2.3082,-2.3081,-2.3066,-2.3035,0,0]},{"header":{"parameterUnit":"m.s-1","parameterCategory":1,"la1":30.2992,"la2":30.254,"lo1":-89.0895,"lo2":-89.0443,"dy":0.0025,"dx":0.0025,"nx":19,"ny":19,"refTime":"2026-04-28T09:00:00:Z","depth":0,"parameterNumber":3,"parameterNumberName":"V-component_of_WINDS"},"data":[0,0,0,3.503,3.5032,3.5109,3.511,3.5209,3.521,0,0,0,0,0,0,0,0,0,0,0,3.5009,3.501,3.503,3.5032,3.5109,3.511,3.5209,3.521,0,0,0,0,0,0,0,0,0,0,0,3.5008,3.5009,3.501,3.5032,3.5109,3.511,3.5209,3.515,0,0,0,0,0,0,0,0,0,0,3.5074,3.5057,3.5009,3.501,3.5033,3.5109,3.511,3.5147,3.5153,3.5175,0,3.5195,0,3.5204,3.5217,3.5217,0,0,0,3.503,3.5051,3.5071,3.5011,3.5033,3.5109,3.5074,3.515,3.5158,3.5183,3.5197,3.52,3.5206,3.5217,3.5218,3.535,3.5351,0,0,3.5026,3.5023,3.5066,3.5076,3.5066,3.5071,3.5076,3.5155,3.5169,3.5197,3.5203,3.5208,3.5218,3.5219,3.535,3.535,0,0,0,3.5015,3.502,3.5038,3.5072,3.5086,3.5074,3.5079,3.5165,3.5171,3.5204,3.5209,3.5219,3.522,3.5349,3.535,3.5383,0,0,0,3.5012,3.5014,3.5036,3.5035,3.5084,3.5127,3.5088,3.5166,3.5175,3.5208,3.5219,3.5221,3.5348,3.5349,3.538,3.5398,0,0,0,3.5003,3.5013,3.5025,3.5035,3.5068,3.5126,3.5136,3.5168,3.5178,3.5217,3.5221,3.5347,3.5349,3.5378,3.5394,3.5433,0,0,0,3.4992,3.5052,3.5025,3.5094,3.5068,3.5146,3.5136,3.5193,3.5231,3.5219,3.5348,3.535,3.5377,3.5392,3.543,3.5464,3.5478,0,0,3.5066,3.5061,3.5101,3.508,3.5162,3.5134,3.5221,3.5257,3.5262,3.532,3.5323,3.5381,3.5394,3.5432,3.5558,3.5569,0,0,0,3.5124,3.5153,3.5175,3.5212,3.5242,3.5268,3.5292,3.5305,3.5355,3.5292,3.5405,3.5413,3.5435,3.5452,3.5461,3.548,3.5357,3.5357,3.5357,3.5223,3.5228,3.5296,3.531,3.5345,3.537,3.5398,3.542,3.5413,3.544,3.5457,3.5533,3.5553,3.556,3.558,3.5476,3.5476,3.5476,3.5476,3.5332,3.5374,3.5365,3.5427,3.5431,3.5483,3.5508,3.5502,3.555,3.5521,3.554,3.5508,3.5572,3.5589,3.5479,3.5478,3.5478,3.5478,3.5478,3.5397,3.5418,3.5435,3.5489,3.5529,3.5541,3.5588,3.559,3.5592,3.5612,3.563,3.5629,3.5629,3.562,3.5621,3.5621,3.5621,3.5621,3.5622,3.5459,3.5477,3.5517,3.5555,3.5579,3.561,3.5635,3.5658,3.5684,3.5682,3.5682,3.5673,3.5578,3.5554,3.5626,3.5625,3.5624,3.5624,3.5624,3.5567,3.5543,3.5605,3.563,3.5674,3.5714,3.5716,3.5763,3.5783,3.5806,3.5792,3.5722,3.5716,3.5709,3.5689,3.5791,3.5791,3.5791,3.5791,3.5623,3.562,3.5685,3.5723,3.5761,3.577,3.5839,3.5859,3.5875,3.5887,3.5873,3.5846,3.5839,3.5837,3.5827,3.5808,3.5939,3.594,3.594,3.5689,3.5691,3.575,3.5767,3.5802,3.5831,3.5896,3.594,3.5953,3.5946,3.5897,3.589,3.5848,3.5834,3.5825,3.5809,3.5775,0,0]}]]